[[{"header":{"parameterUnit":"m.s-1","parameterCategory":1,"la1":30.2991,"la2":30.254,"lo1":-89.0895,"lo2":-89.0444,"dy":0.0017,"dx":0.0017,"nx":28,"ny":28,"refTime":"2025-12-01T09:00:00:Z","depth":0,"parameterNumber":2,"parameterNumberName":"U-component_of_WINDS"},"data":[0,0,0,0,0,0,0,0,0,0,0,0,0,0,0,0,0,0,0,0,0,0,0,0,0,0,0,0,0,0,0,0,0,0,0,0,0,0,0,0,0,0,0,0,0,0,0,0,0,0,0,0,0,0,0,0,0,0,-3.7138,-3.7139,0,-3.7252,-3.7253,-3.7255,-3.7198,-3.7195,-3.7192,-3.7189,-3.7307,-3.7313,-3.7319,0,0,0,0,0,0,0,0,0,0,0,0,0,-3.6871,-3.6876,-3.7138,-3.7139,-3.714,-3.7252,-3.7254,-3.7255,-3.7198,-3.7194,-3.7191,-3.7187,-3.7305,-3.7313,-3.732,0,0,0,0,0,0,0,0,0,0,0,0,0,-3.6986,-3.6878,-3.7137,-3.7125,-3.7125,-3.7252,-3.7254,-3.7256,-3.7199,-3.7194,-3.719,-3.7186,-3.7303,-3.7312,-3.7321,-3.7466,0,0,-3.7348,-3.7352,0,0,0,0,0,0,0,0,-3.698,-3.6996,-3.7126,-3.7126,-3.7127,-3.7206,-3.7203,-3.7326,-3.72,-3.7171,-3.7189,-3.7183,-3.7277,-3.7288,-3.732,-3.7471,-3.7476,-3.7349,-3.7354,-3.7358,-3.736,0,0,0,0,0,0,0,-3.6972,-3.6991,-3.7183,-3.7128,-3.7128,-3.7115,-3.7126,-3.7226,-3.7248,-3.7173,-3.7169,-3.7184,-3.7277,-3.7311,-3.7322,-3.7478,-3.7348,-3.7356,-3.7362,-3.7365,-3.7755,-3.776,0,0,0,0,0,0,-3.6964,-3.6985,-3.7179,-3.7186,-3.7041,-3.7123,-3.7136,-3.7185,-3.7247,-3.7252,-3.7187,-3.718,-3.7298,-3.7312,-3.7326,-3.7501,-3.7358,-3.7366,-3.7371,-3.775,-3.7756,-3.7762,0,0,0,0,0,0,-3.6959,-3.6982,-3.7175,-3.7085,-3.7108,-3.7133,-3.7188,-3.719,-3.7224,-3.7257,-3.7261,-3.7218,-3.7295,-3.7313,-3.7431,-3.7504,-3.737,-3.7378,-3.7744,-3.7752,-3.7759,-3.7851,0,0,0,0,0,0,-3.6951,-3.698,-3.7036,-3.7086,-3.7113,-3.7278,-3.7193,-3.7195,-3.7239,-3.7231,-3.7287,-3.7292,-3.7293,-3.7418,-3.744,-3.7514,-3.7385,-3.7738,-3.7748,-3.7757,-3.7842,-3.7861,-3.7877,0,0,0,0,0,-3.6942,-3.7057,-3.7039,-3.7062,-3.7182,-3.7283,-3.7298,-3.7296,-3.7245,-3.7301,-3.7323,-3.7291,-3.7492,-3.7431,-3.7455,-3.7533,-3.7734,-3.7745,-3.7756,-3.7834,-3.7857,-3.7877,0,0,0,0,0,0,-3.7015,-3.7063,-3.7044,-3.7178,-3.7227,-3.7273,-3.7343,-3.732,-3.7384,-3.7375,-3.7369,-3.7382,-3.7505,-3.753,-3.7461,-3.7676,-3.7605,-3.7622,-3.7656,-3.7678,-3.7696,-3.7688,-3.7393,0,0,0,0,0,-3.7046,-3.7123,-3.7162,-3.7277,-3.7302,-3.7319,-3.7362,-3.7356,-3.7406,-3.7427,-3.7457,-3.7507,-3.7582,-3.7631,-3.7701,-3.7844,-3.7856,-3.7909,-3.7927,-3.7941,-3.7956,-3.8035,-3.8059,-3.7799,-3.7799,-3.7798,0,0,-3.7113,-3.7149,-3.7198,-3.7292,-3.7329,-3.741,-3.7336,-3.7424,-3.7484,-3.744,-3.7554,-3.7578,-3.7633,-3.7765,-3.7824,-3.779,-3.8031,-3.7956,-3.7967,-3.7974,-3.8049,-3.8074,-3.8096,-3.7806,-3.7805,-3.7804,0,0,-3.7275,-3.7309,-3.741,-3.7448,-3.7505,-3.7515,-3.7539,-3.7589,-3.7603,-3.7716,-3.7685,-3.7756,-3.7885,-3.7926,-3.7964,-3.8142,-3.8115,-3.8165,-3.8258,-3.8335,-3.8355,-3.8374,-3.8438,-3.8462,-3.8179,-3.818,-3.818,0,-3.7351,-3.747,-3.7464,-3.7555,-3.7598,-3.7561,-3.7663,-3.7701,-3.7778,-3.7809,-3.7768,-3.7929,-3.7964,-3.8105,-3.8149,-3.818,-3.8208,-3.8159,-3.8353,-3.8371,-3.8388,-3.845,-3.8474,-3.8186,-3.8185,-3.8184,-3.8184,0,-3.7561,-3.7644,-3.7719,-3.7794,-3.7845,-3.7941,-3.795,-3.8002,-3.7992,-3.8007,-3.8123,-3.8164,-3.8242,-3.8275,-3.8266,-3.8415,-3.8392,-3.8353,-3.8281,-3.8419,-3.8477,-3.85,-3.8194,-3.8192,-3.819,-3.8189,0,0,-3.7773,-3.7844,-3.7871,-3.7905,-3.7965,-3.803,-3.8124,-3.82,-3.8246,-3.83,-3.838,-3.8489,-3.8453,-3.8496,-3.8491,-3.8558,-3.8698,-3.851,-3.8512,-3.8545,-3.8867,-3.8897,-3.8925,-3.868,-3.8684,-3.8688,-3.8863,0,-3.7941,-3.8106,-3.8104,-3.8257,-3.8335,-3.8301,-3.8383,-3.8429,-3.8445,-3.8513,-3.8531,-3.8609,-3.8555,-3.8581,-3.8645,-3.8667,-3.8763,-3.8654,-3.8755,-3.8759,-3.8744,-3.8955,-3.8988,-3.9151,-3.8885,-3.8889,-3.8892,0,-3.8159,-3.822,-3.8381,-3.843,-3.8463,-3.8537,-3.8607,-3.8672,-3.8724,-3.8731,-3.8779,-3.8763,-3.886,-3.8784,-3.8918,-3.8844,-3.8885,-3.8902,-3.8909,-3.8919,-3.8835,-3.8973,-3.9202,-3.9227,-3.8927,-3.8924,-3.8922,0,-3.83,-3.8422,-3.8535,-3.8565,-3.8624,-3.8677,-3.8704,-3.8751,-3.8797,-3.8858,-3.8889,-3.896,-3.9,-3.9056,-3.9061,-3.9005,-3.9196,-3.9121,-3.9206,-3.9206,-3.9249,-3.9246,-3.949,-3.9273,-3.9272,-3.9272,-3.9271,0,-3.8488,-3.8588,-3.8599,-3.8668,-3.878,-3.8776,-3.8887,-3.8909,-3.8951,-3.9025,-3.8999,-3.9069,-3.907,-3.9141,-3.9145,-3.9256,-3.9273,-3.9283,-3.9283,-3.9286,-3.9285,-3.9314,-3.9303,-3.9278,-3.9277,-3.9276,-3.9274,0,-3.8665,-3.8676,-3.8796,-3.8842,-3.8856,-3.8937,-3.8976,-3.9043,-3.9056,-3.915,-3.9171,-3.9193,-3.9275,-3.9285,-3.9381,-3.9384,-3.9518,-3.9505,-3.9501,-3.9499,-3.9584,-3.9577,-3.9856,-3.9893,-3.9651,-3.9653,-3.9655,0,-3.8785,-3.8861,-3.8916,-3.8963,-3.8993,-3.907,-3.9117,-3.9115,-3.9166,-3.923,-3.9289,-3.9369,-3.9433,-3.9567,-3.9592,-3.9665,-3.9655,-3.9748,-3.9666,-3.9667,-3.9658,-3.9654,-3.9663,-3.9764,-3.9767,-3.9769,-3.9771,0,-3.8998,-3.8999,-3.9068,-3.9139,-3.9196,-3.9252,-3.9304,-3.9344,-3.935,-3.9408,-3.9492,-3.9541,-3.964,-3.972,-3.9793,-3.9821,-3.9798,-3.9796,-3.982,-3.9825,-3.982,-3.9825,-3.9546,-3.979,-3.9788,-3.9787,-3.9786,-3.9785,-3.9151,-3.9218,-3.9267,-3.9344,-3.9383,-3.9433,-3.9498,-3.9519,-3.9589,-3.9669,-3.9664,-3.9757,-3.9807,-3.9902,-3.9936,-4.0009,-3.9978,-4.0012,-4.0021,-4.003,-4.0039,-3.9807,-4.0022,-4.0021,-4.0021,-4.002,-4.002,0,-3.9364,-3.9394,-3.9465,-3.9539,-3.96,-3.9571,-3.9628,-3.9681,-3.9764,-3.9812,-3.9875,-3.9972,-4.005,-4.008,-4.0156,-4.0209,-4.0201,-4.0229,-4.0226,-4.0234,-4.0062,-4.0034,-4.0235,-4.0235,-4.0235,-4.0235,-4.0235,-4.0235,-3.9482,-3.9594,-3.9601,-3.9732,-3.9761,-3.9852,-3.9887,-3.9933,-3.9971,-4.0081,-4.0145,-4.0164,-4.0205,-4.0284,-4.0354,-4.0361,-4.0391,-4.0425,-4.0428,-4.0267,-4.0245,-4.0225,-4.0199,-4.0431,-4.0432,-4.0593,-4.0595,-4.0596]},{"header":{"parameterUnit":"m.s-1","parameterCategory":1,"la1":30.2991,"la2":30.254,"lo1":-89.0895,"lo2":-89.0444,"dy":0.0017,"dx":0.0017,"nx":28,"ny":28,"refTime":"2025-12-01T09:00:00:Z","depth":0,"parameterNumber":3,"parameterNumberName":"V-component_of_WINDS"},"data":[0,0,0,0,0,0,0,0,0,0,0,0,0,0,0,0,0,0,0,0,0,0,0,0,0,0,0,0,0,0,0,0,0,0,0,0,0,0,0,0,0,0,0,0,0,0,0,0,0,0,0,0,0,0,0,0,0,0,-5.4502,-5.4503,0,-5.455,-5.455,-5.4551,-5.4484,-5.4482,-5.448,-5.4477,-5.4522,-5.4526,-5.4529,0,0,0,0,0,0,0,0,0,0,0,0,0,-5.435,-5.4353,-5.4502,-5.4503,-5.4503,-5.455,-5.455,-5.4551,-5.4485,-5.4482,-5.4479,-5.4476,-5.4521,-5.4525,-5.4529,0,0,0,0,0,0,0,0,0,0,0,0,0,-5.4409,-5.4354,-5.4502,-5.4476,-5.4474,-5.4549,-5.455,-5.4551,-5.4485,-5.4482,-5.4478,-5.4475,-5.452,-5.4525,-5.453,-5.4632,0,0,-5.4545,-5.4548,0,0,0,0,0,0,0,0,-5.4405,-5.4414,-5.4479,-5.4478,-5.4476,-5.4508,-5.4513,-5.4578,-5.4486,-5.4481,-5.4477,-5.4473,-5.452,-5.4525,-5.4541,-5.4634,-5.4636,-5.4546,-5.4549,-5.4551,-5.4553,0,0,0,0,0,0,0,-5.4401,-5.4412,-5.4521,-5.448,-5.4478,-5.4461,-5.4465,-5.4525,-5.452,-5.4481,-5.4477,-5.4483,-5.4519,-5.4537,-5.4542,-5.4636,-5.4546,-5.455,-5.4553,-5.4555,-5.4813,-5.4816,0,0,0,0,0,0,-5.4401,-5.4409,-5.4519,-5.4522,-5.4432,-5.4466,-5.4471,-5.4501,-5.4519,-5.4518,-5.4486,-5.448,-5.453,-5.4536,-5.4543,-5.4663,-5.4551,-5.4556,-5.4559,-5.4809,-5.4813,-5.4818,0,0,0,0,0,0,-5.4398,-5.4412,-5.4517,-5.4464,-5.4476,-5.4473,-5.4507,-5.4504,-5.4522,-5.4523,-5.4521,-5.4506,-5.4527,-5.4536,-5.461,-5.4663,-5.4558,-5.4563,-5.4804,-5.481,-5.4816,-5.4903,0,0,0,0,0,0,-5.4394,-5.4411,-5.4451,-5.4466,-5.448,-5.4585,-5.451,-5.4507,-5.4531,-5.4524,-5.4541,-5.454,-5.4525,-5.4603,-5.4615,-5.4668,-5.4567,-5.48,-5.4807,-5.4814,-5.4895,-5.4911,-5.4924,0,0,0,0,0,-5.4389,-5.4473,-5.4453,-5.4467,-5.453,-5.4588,-5.4596,-5.4578,-5.4536,-5.4575,-5.4575,-5.454,-5.4656,-5.4611,-5.4624,-5.468,-5.4796,-5.4805,-5.4813,-5.4889,-5.4908,-5.4924,0,0,0,0,0,0,-5.4463,-5.4474,-5.4453,-5.4544,-5.4566,-5.4577,-5.4626,-5.4599,-5.4632,-5.4623,-5.4598,-5.4603,-5.4682,-5.4688,-5.4638,-5.4778,-5.4719,-5.473,-5.4771,-5.479,-5.4804,-5.48,-5.4571,0,0,0,0,0,-5.449,-5.4539,-5.4545,-5.4626,-5.4638,-5.463,-5.4655,-5.4639,-5.466,-5.4668,-5.4674,-5.4695,-5.4735,-5.4763,-5.48,-5.4896,-5.4898,-5.494,-5.4955,-5.4967,-5.4977,-5.5026,-5.5045,-5.4846,-5.4845,-5.4845,0,0,-5.4547,-5.4559,-5.4591,-5.4641,-5.4656,-5.4704,-5.4638,-5.4693,-5.4728,-5.4676,-5.4747,-5.4751,-5.4772,-5.4857,-5.4895,-5.4865,-5.5032,-5.4977,-5.4987,-5.4991,-5.5037,-5.5056,-5.5072,-5.4851,-5.485,-5.4849,0,0,-5.4675,-5.469,-5.4757,-5.4774,-5.4797,-5.4792,-5.4808,-5.4823,-5.4824,-5.4895,-5.4856,-5.4897,-5.4969,-5.4985,-5.5002,-5.5135,-5.5104,-5.5148,-5.5224,-5.5272,-5.5288,-5.5302,-5.5348,-5.5365,-5.5158,-5.5159,-5.5159,0,-5.4742,-5.4815,-5.4795,-5.4853,-5.4875,-5.4831,-5.4899,-5.4915,-5.495,-5.4965,-5.4932,-5.5019,-5.503,-5.5118,-5.515,-5.5166,-5.5183,-5.5146,-5.5288,-5.5301,-5.5314,-5.5358,-5.5375,-5.5164,-5.5163,-5.5163,-5.5162,0,-5.4896,-5.4947,-5.4999,-5.5034,-5.5062,-5.5125,-5.5113,-5.5143,-5.5125,-5.5122,-5.5193,-5.5205,-5.5244,-5.5263,-5.5246,-5.5348,-5.5328,-5.5292,-5.5231,-5.5338,-5.5379,-5.5396,-5.5171,-5.5169,-5.5168,-5.5167,0,0,-5.5072,-5.5095,-5.5115,-5.513,-5.5152,-5.5191,-5.525,-5.5289,-5.5315,-5.534,-5.5388,-5.5449,-5.5415,-5.5435,-5.5418,-5.5461,-5.5564,-5.5418,-5.5418,-5.5444,-5.5676,-5.5703,-5.5723,-5.5543,-5.5546,-5.5549,-5.5674,0,-5.5199,-5.5304,-5.5287,-5.5387,-5.5434,-5.5392,-5.5443,-5.5462,-5.546,-5.5498,-5.5496,-5.554,-5.5492,-5.5503,-5.5544,-5.5543,-5.561,-5.5534,-5.5586,-5.5589,-5.5582,-5.5745,-5.5774,-5.5892,-5.569,-5.5693,-5.5695,0,-5.5362,-5.5394,-5.5499,-5.5513,-5.5532,-5.5579,-5.5612,-5.5649,-5.5668,-5.5664,-5.5687,-5.5662,-5.5719,-5.5658,-5.5736,-5.5685,-5.5705,-5.5708,-5.5712,-5.5716,-5.5648,-5.5752,-5.5929,-5.5946,-5.572,-5.5718,-5.5716,0,-5.5479,-5.5548,-5.5619,-5.5634,-5.5652,-5.5686,-5.5695,-5.571,-5.5734,-5.5763,-5.5778,-5.5813,-5.5832,-5.5859,-5.5844,-5.5801,-5.5924,-5.5862,-5.5921,-5.5922,-5.5949,-5.5947,-5.613,-5.5963,-5.5963,-5.5962,-5.5962,0,-5.5623,-5.5689,-5.5672,-5.5716,-5.5788,-5.5767,-5.5838,-5.5842,-5.5856,-5.5899,-5.5865,-5.5905,-5.5883,-5.5921,-5.5909,-5.5975,-5.5984,-5.5981,-5.5977,-5.5984,-5.5984,-5.5997,-5.5988,-5.5967,-5.5966,-5.5965,-5.5964,0,-5.5766,-5.5758,-5.5833,-5.5844,-5.5848,-5.5901,-5.5909,-5.595,-5.5946,-5.6,-5.6011,-5.6005,-5.6048,-5.6035,-5.6082,-5.6074,-5.6157,-5.6143,-5.6151,-5.6147,-5.6207,-5.6201,-5.6404,-5.6429,-5.6246,-5.6248,-5.625,0,-5.5858,-5.5908,-5.5924,-5.5951,-5.5963,-5.6006,-5.603,-5.6011,-5.6038,-5.6063,-5.61,-5.614,-5.6171,-5.6242,-5.624,-5.6275,-5.6261,-5.633,-5.6266,-5.6271,-5.6261,-5.6259,-5.6263,-5.6343,-5.6345,-5.6346,-5.6348,0,-5.6022,-5.6015,-5.6052,-5.6088,-5.6118,-5.6145,-5.6169,-5.6192,-5.6174,-5.6206,-5.625,-5.6274,-5.6322,-5.6362,-5.6394,-5.6401,-5.6371,-5.6368,-5.6383,-5.6391,-5.6393,-5.6392,-5.6185,-5.6363,-5.6362,-5.6361,-5.636,-5.6359,-5.6142,-5.6183,-5.6202,-5.6244,-5.6259,-5.6282,-5.632,-5.6321,-5.6358,-5.6396,-5.6382,-5.6432,-5.6448,-5.6488,-5.65,-5.6538,-5.6511,-5.6534,-5.6539,-5.6545,-5.6552,-5.6388,-5.6543,-5.6543,-5.6542,-5.6542,-5.6542,0,-5.6303,-5.6312,-5.6351,-5.6386,-5.6418,-5.6389,-5.6413,-5.6442,-5.6487,-5.6505,-5.6537,-5.6587,-5.6625,-5.6626,-5.6662,-5.6692,-5.6679,-5.6702,-5.6699,-5.6701,-5.6574,-5.6557,-5.6711,-5.6711,-5.6711,-5.6711,-5.6711,-5.6711,-5.6391,-5.646,-5.6455,-5.653,-5.6539,-5.6589,-5.6605,-5.6625,-5.6639,-5.6697,-5.6729,-5.673,-5.6741,-5.6777,-5.681,-5.6809,-5.6823,-5.6851,-5.6845,-5.6727,-5.671,-5.6694,-5.6678,-5.6855,-5.6855,-5.6968,-5.6969,-5.697]}]]